Location: G�ppingen
(48.7089°N, 9.6563°E)
Time: 02:20:16
(UTC+02:00)

LilacSat-2 - Pass Details

Date: 20 March 2019
Orbit: 513 x 537 km, 97.5° (Epoch: 22 April)

Event Time Altitude Azimuth Distance (km) Brightness Sun altitude
Rises 05:04:34 0° 33° (NNE) 2,648 ? -14.0°
Reaches altitude 10° 05:08:03 10° 67° (ENE) 1,749 ? -13.4°
Maximum altitude 05:09:22 12° 88° (E) 1,649 ? -13.2°
Drops below altitude 10° 05:10:41 10° 109° (ESE) 1,741 ? -13.0°
Sets 05:14:07 0° 143° (SE) 2,617 ? -12.5°
